Ketchikan, AK

8:10 AM AKST on November 15, 2018 (GMT -0900)
Ketchikan International

Weather History for PAKT - October, 2017

Change the Weather History Date:

Thursday, October 26, 2017

  Actual Average Record
Temperature  
Mean Temperature 40 °F -  
Max Temperature 46 °F 48 °F 60 °F (1952)
Min Temperature 35 °F 37 °F 23 °F (1991)
Degree Days  
Heating Degree Days 24    
Moisture  
Dew Point 38 °F    
Average Humidity 94    
Maximum Humidity 100    
Minimum Humidity 79    
Precipitation  
Precipitation 0.00 in - - ()
Sea Level Pressure  
Sea Level Pressure 30.37 in    
Wind  
Wind Speed 4 mph (SE)    
Max Wind Speed 12 mph    
Max Gust Speed -    
Visibility 7 miles    
Events Fog , Rain    
Averages and records for this station are not official NWS values.
T = Trace of Precipitation, MM = Missing Value Source: NWS Daily Summary

Daily Weather History Graph

Daily Weather History Graph

Search for Another Location

Airport or City:

Astronomy

Oct. 26, 2017 Rise Set
Actual Time 7:40 AM AKDT 5:20 PM AKDT
Civil Twilight 7:02 AM AKDT 5:58 PM AKDT
Nautical Twilight 6:19 AM AKDT 6:41 PM AKDT
Astronomical Twilight 5:36 AM AKDT 7:23 PM AKDT
Moon 2:03 PM AKDT (10/26) 10:18 PM AKDT (10/26)
Length of Visible Light 10h 56m
Length of Day
9h 40m
Waxing Crescent, 40% of the Moon is Illuminated
Oct 26
Waxing Crescent
Oct 27
First Quarter
Nov 3
Full
Nov 10
Last Quarter
Nov 18
New

Hourly Weather History & Observations

Time (AKDT) Temp. Windchill Dew Point Humidity Pressure Visibility Wind Dir Wind Speed Gust Speed Precip Events Conditions
12:53 AM 35.1 °F - 35.1 °F 100% 30.40 in 10.0 mi Calm Calm - N/A   Clear
1:53 AM 35.1 °F - 35.1 °F 100% 30.40 in 10.0 mi Calm Calm - N/A   Clear
2:08 AM 36.0 °F - 35.1 °F 97% 30.40 in 10.0 mi Calm Calm - N/A   Scattered Clouds
2:17 AM 35.1 °F - 34.0 °F 96% 30.39 in 10.0 mi Calm Calm - N/A   Mostly Cloudy
2:44 AM 36.0 °F 33.3 °F 36.0 °F 100% 30.38 in 10.0 mi SE 3.5 mph - N/A   Scattered Clouds
2:48 AM 35.6 °F 32.8 °F 35.6 °F 100% 30.39 in 10.0 mi SE 3.5 mph - N/A   Mostly Cloudy
2:53 AM 35.1 °F 31.0 °F 35.1 °F 100% 30.40 in 9.0 mi ESE 4.6 mph - N/A   Mostly Cloudy
2:56 AM 37.0 °F 32.4 °F 36.0 °F 96% 30.39 in 1.5 mi East 5.8 mph - N/A   Mostly Cloudy
3:02 AM 37.9 °F 33.5 °F 37.9 °F 100% 30.39 in 0.2 mi ESE 5.8 mph - N/A Fog Fog
3:10 AM 37.0 °F 32.4 °F 37.0 °F 100% 30.39 in 0.2 mi SE 5.8 mph - N/A Fog Fog
3:53 AM 37.0 °F 32.4 °F 37.0 °F 100% 30.40 in 0.2 mi SE 5.8 mph - N/A Fog Fog
4:53 AM 37.0 °F 34.5 °F 37.0 °F 100% 30.39 in 0.2 mi SSE 3.5 mph - N/A Fog Fog
5:53 AM 37.0 °F 33.3 °F 37.0 °F 100% 30.38 in 0.2 mi SSE 4.6 mph - N/A Fog Fog
6:12 AM 37.4 °F 33.8 °F 37.4 °F 100% 30.38 in 0.2 mi South 4.6 mph - N/A Fog Fog
6:32 AM 37.4 °F 32.1 °F 37.4 °F 100% 30.37 in 0.2 mi SE 6.9 mph - N/A Fog Fog
6:53 AM 37.4 °F 33.8 °F 37.4 °F 100% 30.38 in 0.2 mi ESE 4.6 mph - N/A Fog Fog
7:53 AM 37.4 °F 32.8 °F 37.4 °F 100% 30.36 in 0.2 mi SE 5.8 mph - N/A Fog Fog
8:10 AM 37.4 °F 32.8 °F 37.4 °F 100% 30.35 in 0.2 mi ESE 5.8 mph - N/A Fog Fog
8:53 AM 39.2 °F 34.2 °F 39.2 °F 100% 30.37 in 6.0 mi SE 6.9 mph - N/A   Mist
9:53 AM 39.9 °F 35.8 °F 39.0 °F 97% 30.39 in 10.0 mi SE 5.8 mph - N/A   Overcast
10:53 AM 39.9 °F 37.8 °F 39.9 °F 100% 30.40 in 10.0 mi SSE 3.5 mph - N/A   Overcast
11:53 AM 42.1 °F 37.1 °F 41.0 °F 96% 30.38 in 10.0 mi SE 8.1 mph - N/A   Overcast
12:53 PM 43.0 °F 38.2 °F 41.0 °F 93% 30.38 in 10.0 mi SE 8.1 mph - N/A   Overcast
1:53 PM 44.1 °F 39.5 °F 41.0 °F 89% 30.36 in 10.0 mi SE 8.1 mph - N/A   Overcast
2:53 PM 45.0 °F 39.3 °F 41.0 °F 86% 30.34 in 10.0 mi SE 11.5 mph - N/A   Overcast
3:53 PM 45.0 °F 39.7 °F 39.9 °F 82% 30.35 in 10.0 mi SE 10.4 mph - N/A   Overcast
4:53 PM 44.6 °F 39.7 °F 39.2 °F 81% 30.34 in 10.0 mi SSE 9.2 mph - N/A   Overcast
5:53 PM 45.0 °F 41.2 °F 41.0 °F 86% 30.36 in 10.0 mi SSE 6.9 mph - 0.00 in Rain Light Rain
6:53 PM 45.0 °F 40.1 °F 41.0 °F 86% 30.34 in 10.0 mi SSE 9.2 mph - 0.00 in   Overcast
7:53 PM 45.0 °F 40.1 °F 41.0 °F 86% 30.34 in 10.0 mi SSE 9.2 mph - N/A   Overcast
8:53 PM 46.0 °F 43.1 °F 39.9 °F 79% 30.34 in 10.0 mi SSE 5.8 mph - 0.00 in   Overcast
9:53 PM 46.0 °F 41.9 °F 41.0 °F 83% 30.32 in 10.0 mi SSE 8.1 mph - N/A   Overcast
10:53 PM 46.0 °F 42.5 °F 39.9 °F 79% 30.35 in 10.0 mi SSE 6.9 mph - N/A   Overcast
11:53 PM 46.9 °F - 41.0 °F 80% 30.34 in 10.0 mi SSE 9.2 mph - N/A   Overcast